This is the latest recevied weather packets stored in our database for station/object SQ9SMC-13. If no packets are shown the sender has not sent any weather packets the latest 10 day(s).
| Time | Temp. | Humidity | Pressure | Rain* | Wind** | Luminosity | Snow |
|---|---|---|---|---|---|---|---|
| 1777387202 | 12.78° C | 29% | 1025.1 hPa | 0 mm | - | 316 W/m² | - |
| 1777386903 | 12.78° C | 29% | 1025 hPa | 0 mm | - | 328 W/m² | - |
| 1777386603 | 12.78° C | 28% | 1025.3 hPa | 0 mm | - | 339 W/m² | - |
| 1777386303 | 12.78° C | 28% | 1024.9 hPa | 0 mm | - | 351 W/m² | - |
| 1777386003 | 13.33° C | 28% | 1025.3 hPa | 0 mm | - | 363 W/m² | - |
| 1777385703 | 12.78° C | 28% | 1025.2 hPa | 0 mm | - | 373 W/m² | - |
| 1777385403 | 12.22° C | 29% | 1025.4 hPa | 0 mm | - | 384 W/m² | - |
| 1777385103 | 12.22° C | 27% | 1025.4 hPa | 0 mm | - | 395 W/m² | - |
| 1777384803 | 13.33° C | 26% | 1025.4 hPa | 0 mm | - | 406 W/m² | - |
| 1777384505 | 13.33° C | 27% | 1025.5 hPa | 0 mm | - | 419 W/m² | - |
| 1777384206 | 13.33° C | 26% | 1025.4 hPa | 0 mm | - | 429 W/m² | - |
| 1777383904 | 12.78° C | 27% | 1025.4 hPa | 0 mm | - | 441 W/m² | - |
| 1777383602 | 12.78° C | 25% | 1025.5 hPa | 0 mm | - | 453 W/m² | - |
| 1777383303 | 13.33° C | 25% | 1025.4 hPa | 0 mm | - | 463 W/m² | - |
| 1777383003 | 13.33° C | 26% | 1025.4 hPa | 0 mm | - | 471 W/m² | - |
| 1777382702 | 13.33° C | 28% | 1025.5 hPa | 0 mm | - | 482 W/m² | - |
| 1777382403 | 13.33° C | 25% | 1025.5 hPa | 0 mm | - | 492 W/m² | - |
| 1777382104 | 12.78° C | 26% | 1025.6 hPa | 0 mm | - | 503 W/m² | - |
| 1777381803 | 12.78° C | 26% | 1025.8 hPa | 0 mm | - | 512 W/m² | - |
| 1777381502 | 13.33° C | 27% | 1025.5 hPa | 0 mm | - | 522 W/m² | - |
| 1777381203 | 13.89° C | 26% | 1025.5 hPa | 0 mm | - | 531 W/m² | - |
| 1777380904 | 13.33° C | 26% | 1025.4 hPa | 0 mm | - | 542 W/m² | - |
| 1777380603 | 13.33° C | 27% | 1025.7 hPa | 0 mm | - | 542 W/m² | - |
| 1777380304 | 12.78° C | 28% | 1025.5 hPa | 0 mm | - | 556 W/m² | - |
| 1777380003 | 12.78° C | 27% | 1025.8 hPa | 0 mm | - | 562 W/m² | - |
* Rain latest hour (hover to see other rain measurements)
** Current wind speed in m/s (hover to see current wind gust speed)